Overview Statistics Trail Chart Weather Telemetry Raw packets
 

This is the latest recevied weather packets stored in our database for station/object K7CTM. If no packets are shown the sender has not sent any weather packets the latest 10 day(s).

<< 14 15 16 17 18 19 20 >>
Time Temp. Humidity Pressure Rain* Wind** Luminosity Snow
1788517372 13.89° C 46% 1018.9 hPa 0 mm - 0 W/m² -
1788517068 14.44° C 44% 1019.3 hPa 0 mm - 0 W/m² -
1788516764 15° C 43% 1019.1 hPa 0 mm - 0 W/m² -
1788516459 15.56° C 41% 1018.9 hPa 0 mm - 0 W/m² -
1788516155 16.11° C 40% 1019.1 hPa 0 mm - 0 W/m² -
1788515855 16.11° C 40% 1019.1 hPa 0 mm - 0 W/m² -
1788515550 16.67° C 39% 1018.9 hPa 0 mm - 0 W/m² -
1788515245 16.67° C 39% 1019.1 hPa 0 mm - 0 W/m² -
1788514945 15.56° C 41% 1019 hPa 0 mm - 0 W/m² -
1788514641 15.56° C 42% 1019.1 hPa 0 mm - 0 W/m² -
1788514341 15.56° C 41% 1019.1 hPa 0 mm - 0 W/m² -
1788514037 16.11° C 41% 1019.3 hPa 0 mm - 0 W/m² -
1788513733 16.67° C 40% 1019.1 hPa 0 mm - 0 W/m² -
1788513428 16.11° C 40% 1019.3 hPa 0 mm - 0 W/m² -
1788513123 16.11° C 40% 1019.1 hPa 0 mm - 0 W/m² -
1788512820 16.67° C 39% 1019.6 hPa 0 mm - 0 W/m² -
1788512515 16.67° C 39% 1019.4 hPa 0 mm - 0 W/m² -
1788512210 16.67° C 39% 1019.5 hPa 0 mm - 0 W/m² -
1788511910 16.67° C 39% 1019.5 hPa 0 mm - 0 W/m² -
1788511604 16.67° C 38% 1019.6 hPa 0 mm - 0 W/m² -
1788511301 17.22° C 38% 1019.6 hPa 0 mm - 0 W/m² -
1788510997 16.67° C 38% 1019.7 hPa 0 mm - 0 W/m² -
1788510693 16.67° C 38% 1019.7 hPa 0 mm - 0 W/m² -
1788510387 16.67° C 38% 1019.7 hPa 0 mm - 0 W/m² -
1788510083 16.67° C 39% 1019.7 hPa 0 mm - 0 W/m² -

* Rain latest hour (hover to see other rain measurements)
** Current wind speed in m/s (hover to see current wind gust speed)